sat.trackr.live / text

‹ back to catalog

STARLINK-35161

NORAD 65936 · 2025-225AC

PAYLOAD ACTIVE UNKNOWN

§ Identity

Operator
Country
US
Launch date
2025-10-08
Launch site
AFWTR
Launch vehicle
Mass (kg)
RCS (m²)

Purposes: comms

External: N2YO · Heavens-Above · Gunter

§ Orbital elements

Epoch: 2026-05-24T10:47:01.106304Z

Period
94.11 min
Inclination
53.1570°
Eccentricity
0.0001096
Mean motion
15.30199683 rev/d
Perigee alt
474.5 km
Apogee alt
476.0 km
Semi-major
6,853.4 km
B*
2.3137e-4
RAAN
174.0366°
Arg perigee
82.1783°
Mean anomaly
277.9342°
Rev number
3,511

§ Raw data

STARLINK-351611 65936U 25225AC  26144.44931836  .00006499  00000+0  23137-3 0  99962 65936  53.1570 174.0366 0001096  82.1783 277.9342 15.30199683 35113

JSON: /api/v1/satellites/65936 · /tle

For live sub-satellite position, see the globe view (requires WebGL).

§ Visibility from observer

Set your observer location to see the next 7 days of passes ≥ 10°. The values pass through the URL so the page stays shareable.

No JS? Fill the form by hand. The geolocation button needs JavaScript.